Parsons, KS

9:28 PM CST on November 16, 2019 (GMT -0600)
Tri-City

Weather History for KPPF - July, 2019

Change the Weather History Date:

Sunday, July 21, 2019

  Actual Average Record
Temperature  
Mean Temperature 81 °F -  
Max Temperature 93 °F 92 °F 108 °F (1974)
Min Temperature 69 °F 68 °F 54 °F (1970)
Cooling Degree Days 16    
Growing Degree Days 31 (Base 50)    
Moisture  
Dew Point 73 °F    
Average Humidity 81    
Maximum Humidity 100    
Minimum Humidity 56    
Precipitation  
Precipitation 1.10 in - - ()
Sea Level Pressure  
Sea Level Pressure 29.92 in    
Wind  
Wind Speed 6 mph (South)    
Max Wind Speed 43 mph    
Max Gust Speed 77 mph    
Visibility 8 miles    
Events Fog , Rain , Thunderstorm    
Averages and records for this station are not official NWS values.
T = Trace of Precipitation, MM = Missing Value Source: NWS Daily Summary

Daily Weather History Graph

Daily Weather History Graph

Search for Another Location

Airport or City:

Astronomy

Jul. 21, 2019 Rise Set
Actual Time 6:17 AM CDT 8:38 PM CDT
Civil Twilight 5:47 AM CDT 9:08 PM CDT
Nautical Twilight 5:11 AM CDT 9:45 PM CDT
Astronomical Twilight 4:30 AM CDT 10:25 PM CDT
Moon 11:39 PM CDT (7/21) 10:34 AM CDT (7/21)
Length of Visible Light 15h 20m
Length of Day
14h 21m
Waning Gibbous, 80% of the Moon is Illuminated
Jul 21
Waning Gibbous
Jul 24
Last Quarter
Jul 31
New
Aug 7
First Quarter
Aug 15
Full

Hourly Weather History & Observations

Time (CDT) Temp. Heat Index Dew Point Humidity Pressure Visibility Wind Dir Wind Speed Gust Speed Precip Events Conditions
12:52 AM 81.0 °F 85.8 °F 73.0 °F 77% 29.89 in 10.0 mi South 3.5 mph - N/A   Clear
1:52 AM 79.0 °F - 73.9 °F 84% 29.89 in 10.0 mi South 3.5 mph - N/A   Clear
2:52 AM 78.1 °F - 73.0 °F 84% 29.88 in 10.0 mi South 5.8 mph - N/A   Clear
3:52 AM 77.0 °F - 73.0 °F 88% 29.87 in 10.0 mi South 9.2 mph 18.4 mph N/A   Clear
4:52 AM 77.0 °F - 73.0 °F 88% 29.89 in 10.0 mi South 3.5 mph - N/A   Clear
5:52 AM 75.9 °F - 73.0 °F 91% 29.93 in 10.0 mi East 3.5 mph - N/A   Clear
6:52 AM 75.9 °F - 73.0 °F 91% 29.95 in 10.0 mi Calm Calm - N/A   Clear
7:52 AM 80.1 °F 84.5 °F 73.9 °F 81% 29.95 in 10.0 mi Variable 3.5 mph - N/A   Clear
8:52 AM 82.9 °F 90.2 °F 75.0 °F 77% 29.93 in 10.0 mi Variable 4.6 mph - N/A   Clear
9:52 AM 82.9 °F 89.4 °F 73.9 °F 74% 29.91 in 10.0 mi South 6.9 mph - N/A   Clear
10:52 AM 88.0 °F 97.5 °F 75.0 °F 65% 29.91 in 10.0 mi SSE 8.1 mph - N/A   Clear
11:52 AM 89.1 °F 100.2 °F 75.9 °F 65% 29.91 in 10.0 mi SSE 6.9 mph - N/A   Clear
12:52 PM 88.0 °F 97.5 °F 75.0 °F 65% 29.90 in 10.0 mi SSE 5.8 mph - N/A   Clear
1:52 PM 91.0 °F 101.6 °F 75.0 °F 59% 29.91 in 10.0 mi Calm Calm - N/A   Partly Cloudy
2:52 PM 91.0 °F 101.6 °F 75.0 °F 59% 29.90 in 10.0 mi Calm Calm - N/A   Partly Cloudy
3:52 PM 93.9 °F 106.9 °F 75.9 °F 56% 29.89 in 10.0 mi SSE 3.5 mph - N/A   Partly Cloudy
4:52 PM 91.0 °F 102.9 °F 75.9 °F 61% 29.88 in 10.0 mi South 3.5 mph - N/A   Clear
5:52 PM 93.0 °F 105.3 °F 75.9 °F 57% 29.86 in 10.0 mi Calm Calm - N/A   Clear
6:52 PM 91.9 °F 103.9 °F 75.9 °F 59% 29.85 in 10.0 mi SSE 3.5 mph - N/A   Partly Cloudy
7:52 PM 87.1 °F 103.2 °F 80.1 °F 80% 29.84 in 10.0 mi Calm Calm - N/A   Overcast
8:18 PM 87.1 °F 99.8 °F 78.1 °F 74% 29.87 in 10.0 mi Calm Calm - N/A Thunderstorm Mostly Cloudy
8:34 PM 87.1 °F 98.8 °F 77.0 °F 72% 29.86 in 10.0 mi SSW 3.5 mph - N/A Thunderstorm Thunderstorm
8:50 PM 87.8 °F 99.7 °F 77.0 °F 70% 29.92 in 10.0 mi NW 12.7 mph 21.9 mph N/A Thunderstorm Mostly Cloudy
8:52 PM 87.1 °F 98.8 °F 77.0 °F 72% 29.91 in 10.0 mi NNW 19.6 mph 28.8 mph N/A Thunderstorm Mostly Cloudy
8:58 PM 77.0 °F - 66.9 °F 71% 29.86 in 6.0 mi North 42.6 mph 77.1 mph 0.00 in Rain , Thunderstorm Light Thunderstorms and Rain
9:10 PM 72.0 °F - 68.0 °F 87% 29.95 in 9.0 mi North 25.3 mph 66.7 mph 0.00 in Rain , Thunderstorm Light Thunderstorms and Rain
9:17 PM 71.1 °F - 69.1 °F 93% 29.99 in 1.8 mi NW 21.9 mph 40.3 mph 0.19 in Rain , Thunderstorm Heavy Thunderstorms and Rain
9:20 PM 71.1 °F - 69.1 °F 93% 29.99 in 1.0 mi NW 21.9 mph 39.1 mph 0.31 in Rain , Thunderstorm Heavy Thunderstorms and Rain
9:23 PM 70.0 °F - 69.1 °F 97% 29.99 in 0.8 mi WNW 18.4 mph 35.7 mph 0.42 in Rain , Thunderstorm Heavy Thunderstorms and Rain
9:33 PM 70.0 °F - 69.1 °F 97% 29.95 in 0.5 mi North 8.1 mph 27.6 mph 0.84 in Fog , Rain , Thunderstorm Heavy Thunderstorms and Rain
9:42 PM 70.0 °F - 69.1 °F 97% 29.96 in 1.2 mi Calm Calm - 0.99 in Rain , Thunderstorm Heavy Thunderstorms and Rain
9:50 PM 69.8 °F - 69.8 °F 100% 29.96 in 1.5 mi Variable 4.6 mph - 1.05 in Rain , Thunderstorm Heavy Thunderstorms and Rain
9:52 PM 70.0 °F - 69.1 °F 97% 29.93 in 1.5 mi East 4.6 mph - 1.06 in Rain , Thunderstorm Heavy Thunderstorms and Rain
9:57 PM 70.0 °F - 69.1 °F 97% 29.96 in 2.5 mi East 3.5 mph - 0.02 in Rain , Thunderstorm Heavy Thunderstorms and Rain
10:04 PM 70.0 °F - 69.1 °F 97% 29.95 in 6.0 mi Calm Calm - 0.03 in Rain , Thunderstorm Light Thunderstorms and Rain
10:25 PM 70.0 °F - 69.1 °F 97% 29.95 in 10.0 mi Variable 3.5 mph - 0.03 in Thunderstorm Mostly Cloudy
10:52 PM 70.0 °F - 69.1 °F 97% 29.95 in 10.0 mi Calm Calm - 0.03 in   Partly Cloudy
11:40 PM 71.1 °F - 70.0 °F 96% 30.01 in 9.0 mi Calm Calm - 0.01 in Rain , Thunderstorm Light Thunderstorms and Rain
11:52 PM 71.1 °F - 70.0 °F 96% 29.98 in 10.0 mi Calm Calm - 0.01 in Rain Light Rain